Location: Pittman
(37.9557°N, 80.9209°W)
Time: 19:01:49
(UTC+00:00)

Envisat - Pass Details

Date: 27 April 2026
Orbit: 761 x 762 km, 98.4° (Epoch: 13 May)

Event Time Altitude Azimuth Distance (km) Brightness Sun altitude
Rises 08:43:09 0° 3° (N) 3,230 6.8 -19.9°
Reaches altitude 10° 08:45:37 10° 354° (N) 2,300 5.9 -19.5°
Maximum altitude 08:50:10 35° 291° (WNW) 1,225 3.8 -18.8°
Enters shadow 08:51:20 31° 263° (W) 1,321 3.7 -18.6°
